Volver al catálogo

STARLINK-5980

ActivoComunicacionesSSO
NORAD 56326·PAYLOAD·🇺🇸 United States

Lanzado Apr 27, 2023 desde Vandenberg Space Force Base

Loading…

Próximos Pases (próximas 24 horas)

TLE

ActualizadoSource: CelesTrak SupGP

Época: Sep 14, 2026, 21:19 UTC

1 56326C 23058K   26257.88868056  .00653700  00000+0  36976-1 0  2570
2 56326  97.2852 251.9892 0001768  84.5199 245.3586 15.12823839    17

Sigue STARLINK-5980 en tiempo real con AllMySat

Download on the App Store